Regional Weather Roundup
Issued by NWS

Home | Current Version | Previous Version | Graphics & Text | Print | Product List | Glossary On
Versions: 1 2 3 4 5 6 7 8 9 10 11 12 13 14 15 16 17 18 19 20 21 22 23 24 25 26 27
000
ASUS45 KSLC 220310
RWRUT

UTAH REGIONAL WEATHER ROUNDUP
NATIONAL WEATHER SERVICE SALT LAKE CITY UT
800 PM MST SUN JAN 21 2018

UTZ001>011-023>025-220400-

NORTHERN UTAH

CITY           SKY/WX    TMP DP  RH WIND       PRES   REMARKS
BRIGHAM CITY   CLEAR     30  22  73 CALM      30.29R
HILL AFB       CLEAR     20  16  84 S8        30.26R WCI  10
LOGAN          PTCLDY    25  18  74 E3        30.26R
OGDEN          CLEAR     27  20  75 SE5       30.27R WCI  22
SALT LAKE CITY PTCLDY    28  21  75 SE6       30.28R WCI  22
TOOELE VALLEY  CLEAR     14  10  85 S12       30.29R WCI   0
WENDOVER       CLEAR     27  21  78 SE3       30.26R
HEBER CITY       N/A     16   9  73 E3        30.23R
WEST JORDAN    CLEAR     20  14  76 SW9       30.28S WCI  10

$$

UTZ011>015-024>027-220400-

CENTRAL/NORTHEAST UTAH

CITY           SKY/WX    TMP DP  RH WIND       PRES   REMARKS
PROVO AIRPORT  PTCLDY    24  19  81 S6        30.31R WCI  17
MOAB/CANYONLAN CLEAR     31  23  72 CALM      30.15R
DELTA          CLEAR     18  16  93 MISG      30.29R
PRICE          CLEAR     24  11  57 NW17G29   30.14R WCI  11
RICHFIELD      CLEAR     10  10 100 CALM      30.29R
ROOSEVELT      CLEAR     27  19  74 N8        30.18R WCI  18
VERNAL         CLEAR     19  12  74 W12       30.15R WCI   7

$$

UTZ013>016-019>022-027-220400-

SOUTHERN UTAH

CITY           SKY/WX    TMP DP  RH WIND       PRES   REMARKS
BRYCE CANYON   CLEAR     12   8  84 NW9       30.16R WCI   0
CEDAR CITY     PTCLDY    12  10  92 N5        30.24R WCI   4
MILFORD        NOT AVBL
ST GEORGE      CLEAR     38  23  55 S6        30.29R WCI  33
HANKSVILLE     CLEAR     32  10  40 NW10      30.21R WCI  24
KANAB          CLEAR     30   9  40 N5        30.27R WCI  25
BLANDING         N/A     27  10  49 NW10G18   30.19R WCI  17

$$

REGIONAL REPORTS     COLORADO/ARIZONA

CITY           SKY/WX    TMP DP  RH WIND       PRES   REMARKS
CRAIG, CO      MOCLDY    15   9  76 W9        30.11R WCI   3
GRAND JUNCTION PTCLDY    18  12  77 CALM      30.15R
RIFLE, CO      MOCLDY    26  16  65 W10       30.11R WCI  16
MONTROSE, CO   PTCLDY    23  14  68 NW5       30.14R WCI  17
CORTEZ, CO     CLEAR     23  14  68 NW6       30.11R WCI  16
COLORADO CITY    N/A     30  19  64 NW7       30.26R WCI  23
PAGE, AZ       CLEAR     36  11  35 W10       30.19R WCI  28
GRAND CANYON   CLEAR     21  12  68 CALM      30.19R
KINGMAN, AZ    CLEAR    N/A N/A N/A E3        30.27R
FLAGSTAFF, AZ  CLEAR     21   9  59 NW3       30.16R

$$

REGIONAL REPORTS    NEVADA/IDAHO/WYOMING

CITY           SKY/WX    TMP DP  RH WIND       PRES   REMARKS
LAS VEGAS, NV  PTCLDY    48  17  29 E5        30.28R
ELY, NY        CLEAR      7   3  84 S13       30.25R WCI  -9
ELKO, NV       PTCLDY    25  18  74 CALM      30.23S
POCATELLO, ID  CLEAR     27  21  78 S7        30.22S WCI  19
BURLEY, ID     CLEAR     28  22  78 S7        30.20S WCI  21
EVANSTON, WY   PTCLDY     8   5  87 SW8       30.17R WCI  -4
ROCK SPRINGS,  PTCLDY    14   9  80 SW20      30.09S WCI  -3

$$




USA.gov is the U.S. government's official web portal to all federal, state and local government web resources and services.